Regional Weather Roundup
Issued by NWS

Home | Current Version | Previous Version | Graphics & Text | Print | Product List | Glossary On
Versions: 1 2 3 4 5 6 7 8 9 10 11 12 13 14 15 16 17 18 19 20 21 22 23 24 25 26 27 28 29 30 31 32 33 34 35 36 37 38 39 40 41 42 43 44 45 46 47 48 49 50
000
ASUS44 KMEG 161010
RWRTN
TENNESSEE HOURLY STATE WEATHER ROUNDUP
NATIONAL WEATHER SERVICE MEMPHIS TN
500 AM CDT WED APR 16 2014

TNZ002-004-019-021-049-052-054-088>092-161100-
WEST TENNESSEE

CITY           SKY/WX    TMP DP  RH WIND       PRES   REMARKS
MEMPHIS INTL   PTCLDY    38  25  59 E8        30.22F WCI  32
NWS MEMPHIS      N/A     36 N/A N/A MISG        N/A
JACKSON        CLEAR     30  24  78 CALM      30.26S
DYERSBURG      CLEAR     37  19  48 E7        30.27S WCI  32
UNION CITY     CLEAR     34  25  69 CALM      30.26S
PARIS          CLEAR     29  23  78 E3        30.26F
LEXINGTON      CLEAR     28  25  86 CALM      30.24F
SAVANNAH       CLEAR     28  26  92 CALM      30.25S
$$

TNZ008-025-027-028-033-062-065-066-161100-
NORTH MIDDLE TENNESSEE

CITY           SKY/WX    TMP DP  RH WIND       PRES   REMARKS
NASHVILLE      CLEAR     32  23  69 NE8       30.29S WCI  25
DICKSON        CLEAR     30  19  64 E6        30.26S WCI  24
PORTLAND       CLEAR     28  21  74 NE5       30.29R WCI  23
CLARKSVILLE    CLEAR     31  22  69 E6        30.29S WCI  25
SMYRNA         CLEAR     32  23  69 NE6       30.30S WCI  26
MURFREESBORO   CLEAR     29  24  81 NE5       30.28S WCI  24
GALLATIN       CLEAR     31  22  69 NE5       30.30S WCI  26
CROSSVILLE     CLEAR     28  21  75 NE8       30.24R WCI  20
$$

TNZ061-075-076-078-094-096-097-161100-
SOUTH MIDDLE TENNESSEE

CITY           SKY/WX    TMP DP  RH WIND       PRES   REMARKS
LEWISBURG      CLEAR     25  22  88 CALM      30.26F
FAYETTEVILLE   CLEAR     29  22  75 NE12      30.22F WCI  19
TULLAHOMA      CLEAR     30  19  64 NE8       30.24F WCI  23
WINCHESTER     CLEAR     28  25  86 NE5       30.25R WCI  23
MCMINNVILLE    CLEAR     28  23  80 NE6       30.26S WCI  22
COLUMBIA       CLEAR     28  27  93 CALM      30.25R
SHELBYVILLE    CLEAR     28  23  80 NE5       30.27S WCI  23
$$

TNZ017-018-042-046-047-161100-
NORTHEAST TENNESSEE

CITY           SKY/WX    TMP DP  RH WIND       PRES   REMARKS
TRI CITIES     CLEAR     27  18  69 N3        30.29R
ELIZABETHTON   SUNNY     25  19  80 CALM      30.27R
$$

TNZ012-013-036-069-073-074-161100-
CENTRAL EAST TENNESSEE

CITY           SKY/WX    TMP DP  RH WIND       PRES   REMARKS
KNOXVILLE      CLEAR     31  22  69 NE12      30.26S WCI  22
OAK RIDGE      CLEAR     31  25  78 NE3       30.30R
$$

TNZ083-085-099-161100-
SOUTHEAST TENNESSEE

CITY           SKY/WX    TMP DP  RH WIND       PRES   REMARKS
CHATTANOOGA    CLEAR     36  23  59 NE13G21   30.25R WCI  27
$$

SKY/WX REPORTED AS FAIR MEANS FEW OR NO CLOUDS BELOW
12 THOUSAND FEET.




USA.gov is the U.S. government's official web portal to all federal, state and local government web resources and services.